Flag for Canada Weather past 2 weeks in Granby, Quebec, Canada

Now
1 °F

Frigid.


Feels Like: 1 °F
Forecast: -7 / 15 °F
Wind: 2 mph from Southwest

Location: Frelighsburg

Current Time: Mar 6, 2015 at 12:03:19 AM

Latest Report: Mar 5, 2015 at 11:00 PM


Visibility: N/A

Pressure: 30.36 "Hg

Humidity: 60%

Dew point: -10 °F

Location of GranbyLocation

Historic Weather in Granby — Graph

°F

Granby temperature yesterday

Maximum temperature yesterday: 24 °F (at 12:00 AM)
Minimum temperature yesterday: 1 °F (at 11:00 PM)
Average temperature yesterday: 10 °F

Past Weeks' High & Low Weather Summary

 TemperatureHumidityPressure
High35 °F (Mar 4, 3:00 PM)100% (Feb 22, 3:00 AM)30.72 "Hg (Feb 22, 3:00 AM)
Low-14 °F (Feb 24, 2:00 AM)25% (Mar 3, 2:00 PM)29.52 "Hg (Mar 4, 12:00 AM)
Average11 °F65%30.10 "Hg
* Reported Feb 18 11:00 PM — Mar 5 11:00 PM, Granby, Weather by CustomWeather, © 2015

Note: Actual official high and low records may vary slightly from our data, if they occured in-between our weather recording intervals... More about our weather records

Advertising

Granby weather history for previous 24 hours

 ConditionsComfort  
Time TempWeatherWind HumidityBarometerVisibility
11:00 PM
Thu, Mar 5
1 °FFrigid.2 mph60%30.36 "HgN/A
10:00 PM1 °FFrigid.2 mph61%30.35 "HgN/A
9:00 PM2 °FFrigid.2 mph61%30.33 "HgN/A
8:00 PM3 °FFrigid.1 mph56%30.30 "HgN/A
7:00 PM4 °FFrigid.1 mph57%30.28 "HgN/A
6:00 PM5 °FFrigid.2 mph54%30.26 "HgN/A
5:00 PM8 °FFrigid.6 mph52%30.24 "HgN/A
4:00 PM8 °FFrigid.8 mph51%30.24 "HgN/A
3:00 PM11 °FCold.5 mph45%30.21 "HgN/A
2:00 PM9 °FFrigid.7 mph48%30.21 "HgN/A
1:00 PM9 °FFrigid.9 mph46%30.20 "HgN/A
12:00 PM8 °FFrigid.10 mph47%30.22 "HgN/A
11:00 AM8 °FFrigid.7 mph45%30.20 "HgN/A
10:00 AM7 °FFrigid.13 mph51%30.19 "HgN/A
9:00 AM9 °FFrigid.9 mph54%30.16 "HgN/A
8:00 AM10 °FFrigid.6 mph52%30.14 "HgN/A
7:00 AM12 °FCold.7 mph52%30.09 "HgN/A
6:00 AM15 °FCold.7 mph62%30.03 "HgN/A
5:00 AM13 °FCold.8 mph89%30.00 "HgN/A
4:00 AM17 °FCold.5 mph55%29.96 "HgN/A
3:00 AM19 °FCold.6 mph51%29.93 "HgN/A
2:00 AM20 °FCold.5 mph50%29.91 "HgN/A
1:00 AM23 °FCold.5 mph53%29.90 "HgN/A
12:00 AM24 °FCold.6 mph50%29.83 "HgN/A
Weather by CustomWeather, © 2015

See weather overviewHow to use our weather pages